San Angelo, TX

8:06 PM CDT on March 27, 2017 (GMT -0500)
San Angelo Regional-Mathis

Weather History for KSJT - October, 2012

Change the Weather History Date:

Saturday, October 13, 2012

  Actual Average Record
Temperature  
Mean Temperature 76 °F 67 °F  
Max Temperature 86 °F 80 °F 102 °F (1926)
Min Temperature 66 °F 55 °F 38 °F (1949)
Degree Days  
Heating Degree Days 0 2  
Month to date heating degree days 40 18  
Since 1 July heating degree days 42 27  
Cooling Degree Days 11 4  
Month to date cooling degree days 66 69  
Year to date cooling degree days 3110 2434  
Growing Degree Days 26 (Base 50)    
Moisture  
Dew Point 68 °F    
Average Humidity 76    
Maximum Humidity 93    
Minimum Humidity 59    
Precipitation  
Precipitation 0.48 in 0.09 in 2.65 in (1981)
Month to date precipitation 0.49 1.15  
Year to date precipitation 21.78 17.68  
Snow  
Snow T in 0.00 in 0.00 in (2002)
Month to date snowfall 0.0 0.0  
Since 1 July snowfall 0.0 0.0  
Snow Depth 0.00 in    
Sea Level Pressure  
Sea Level Pressure 29.91 in    
Wind  
Wind Speed 13 mph (South)    
Max Wind Speed 25 mph    
Max Gust Speed 35 mph    
Visibility 10 miles    
Events Rain , Thunderstorm    
T = Trace of Precipitation, MM = Missing Value Source: NWS Daily Summary

Daily Weather History Graph

Daily Weather History Graph

Search for Another Location

Airport or City:

Trip Planner

Search our weather history database for the weather conditions in past years. The results will help you decide how hot, cold, wet, or windy it might be!

Date:

Astronomy

Oct. 13, 2012 Rise Set
Actual Time 7:43 AM CDT 7:11 PM CDT
Civil Twilight 7:19 AM CDT 7:36 PM CDT
Nautical Twilight 6:51 AM CDT 8:04 PM CDT
Astronomical Twilight 6:23 AM CDT 8:32 PM CDT
Moon 5:41 AM CDT (10/13) 5:53 PM CDT (10/13)
Length of Visible Light 12h 16m
Length of Day
11h 27m
Waning Crescent, 5% of the Moon is Illuminated
Oct 13
Waning Crescent
Oct 15
New
Oct 21
First Quarter
Oct 29
Full
Nov 6
Last Quarter

Hourly Weather History & Observations

Time (CDT) Temp. Heat Index Dew Point Humidity Pressure Visibility Wind Dir Wind Speed Gust Speed Precip Events Conditions
2:51 AM 75.9 °F - 68.0 °F 76% 29.93 in 10.0 mi South 10.4 mph - N/A   Mostly Cloudy
3:51 AM 77.0 °F - 69.1 °F 76% 29.89 in 10.0 mi South 15.0 mph 26.5 mph N/A   Overcast
4:51 AM 77.0 °F - 68.0 °F 74% 29.90 in 10.0 mi South 16.1 mph 26.5 mph N/A   Overcast
6:37 AM 75.2 °F - 68.0 °F 78% 30.03 in 10.0 mi South 9.2 mph - N/A   Overcast
6:51 AM 75.9 °F - 68.0 °F 76% 29.95 in 10.0 mi South 8.1 mph - N/A   Overcast
7:51 AM 75.0 °F - 68.0 °F 79% 29.93 in 10.0 mi South 17.3 mph 21.9 mph 0.00 in   Mostly Cloudy
8:05 AM 75.2 °F - 68.0 °F 78% 29.99 in 10.0 mi South 12.7 mph 21.9 mph N/A   Scattered Clouds
8:51 AM 75.0 °F - 69.1 °F 82% 29.94 in 10.0 mi South 13.8 mph - N/A   Mostly Cloudy
9:24 AM 73.4 °F - 69.8 °F 88% 30.00 in 8.0 mi South 10.4 mph 18.4 mph 0.00 in Rain Light Rain
9:51 AM 75.0 °F - 69.1 °F 82% 29.95 in 10.0 mi South 10.4 mph 19.6 mph 0.01 in   Overcast
10:51 AM 77.0 °F - 69.1 °F 76% 29.94 in 10.0 mi South 11.5 mph 21.9 mph N/A   Overcast
11:51 AM 78.1 °F - 68.0 °F 71% 29.93 in 10.0 mi South 19.6 mph 27.6 mph N/A   Overcast
1:51 PM 84.0 °F 87.8 °F 69.1 °F 61% 29.87 in 10.0 mi SSW 18.4 mph 31.1 mph N/A   Partly Cloudy
2:51 PM 84.9 °F 88.8 °F 69.1 °F 59% 29.84 in 10.0 mi SSW 18.4 mph 27.6 mph N/A   Partly Cloudy
3:51 PM 84.9 °F 88.2 °F 68.0 °F 57% 29.81 in 10.0 mi SSW 20.7 mph 28.8 mph N/A   Clear
4:51 PM 84.0 °F 87.0 °F 68.0 °F 58% 29.80 in 10.0 mi South 11.5 mph - N/A   Clear
5:51 PM 84.0 °F 87.8 °F 69.1 °F 61% 29.79 in 10.0 mi SSW 9.2 mph - N/A   Clear
6:15 PM 82.4 °F 85.4 °F 68.0 °F 62% 29.88 in 10.0 mi SSW 4.6 mph - N/A Thunderstorm Clear
6:51 PM 79.0 °F - 64.9 °F 62% 29.83 in 10.0 mi NW 11.5 mph - N/A Thunderstorm Clear
7:51 PM 72.0 °F - 64.9 °F 78% 29.83 in 7.0 mi Variable 5.8 mph - 0.27 in Rain , Thunderstorm Light Rain
9:51 PM 66.9 °F - 64.0 °F 90% 29.90 in 10.0 mi South 15.0 mph 20.7 mph 0.10 in Rain , Thunderstorm Thunderstorms and Rain
11:08 PM 68.0 °F - 62.6 °F 83% 29.97 in 10.0 mi South 3.5 mph - 0.00 in Rain Rain